Weather Roundup
Issued by NWS Springfield, MO

Home | Current Version | Previous Version | Text Only | Print | Product List | Glossary On
Versions: 1 2 3 4 5 6 7 8 9 10 11 12 13 14 15 16 17 18 19 20 21 22 23 24 25 26 27 28 29 30 31 32 33 34 35 36 37 38 39 40 41 42 43 44 45 46 47 48 49 50
000
NZUS99 KSGF 241607
HRRSGF

HOURLY WEATHER
NATIONAL WEATHER SERVICE SPRINGFIELD MO
1100 AM CDT TUE MAY 24 2016

......SGF CWA......

CITY           SKY/WX    TMP DP  RH WIND       PRES   REMARKS
SPRINGFIELD    MOSUNNY   75  66  73 S14       29.96F
JOPLIN         LGT RAIN  72  69  90 SW10      29.94S
WEST PLAINS    LGT RAIN  71  63  75 SE5       30.05S
ROLLA          CLOUDY    72  65  78 S12       30.00S THUNDER
OSAGE BEACH      N/A    N/A N/A N/A SE3       30.00
BRANSON        PTSUNNY   77  68  73 S7        29.99F

......SURROUNDING SGF CWA......

CITY           SKY/WX    TMP DP  RH WIND       PRES   REMARKS
CHANUTE        CLOUDY    66  63  90 N13       29.97R
PARSONS        CLOUDY    71  69  93 N6        29.95S
COFFEYVILLE    CLOUDY    75  69  81 SW6       29.93F
EMPORIA        SUNNY     70  60  70 N8        29.95F
GROVE OK       MOSUNNY   81  70  69 S16G22    29.93F
ROGERS AR      SUNNY     79  68  69 S20       29.96F
SILOAM SPRINGS MOSUNNY   77  63  61 S13G23    29.96F
HARRISON AR    MOSUNNY   79  67  66 S13G18    29.99F
NEAR YELLVILLE PTSUNNY  N/A N/A N/A CALM      29.97S

......KANSAS AND MISSOURI......

CITY           SKY/WX    TMP DP  RH WIND       PRES   REMARKS
KANSAS CTY INT CLOUDY    67  63  87 W7        29.99S
DOWNTOWN KC    LGT RAIN  68  64  87 NW3       29.98F
COLUMBIA       TSTM      67  65  93 W6        30.01R FOG
SEDALIA        PTSUNNY   72  67  84 S12       29.99S
ST JOSEPH      CLOUDY    68  59  73 SW7       29.97F
ST LOUIS       PTSUNNY   77  58  51 S9        30.02S
SPIRIT OF STL  PTSUNNY   79  63  57 S8        30.00R
KIRKSVILLE     CLOUDY    72  65  78 SE14      29.95F
WICHITA        CLOUDY    69  63  81 E12       29.95S
TOPEKA           N/A     67  62  84 VRB3      29.92F
OLATHE         CLOUDY    67  63  87 N9        29.98S

......TENNESSEE......

CITY           SKY/WX    TMP DP  RH WIND       PRES   REMARKS
MEMPHIS        MOSUNNY   84  61  45 SW9       30.07S
NASHVILLE      MOSUNNY   82  51  34 S7        30.13S

......ARKANSAS.......

CITY           SKY/WX    TMP DP  RH WIND       PRES   REMARKS
FAYETTEVILLE   MOSUNNY   77  70  79 S13       29.96F
FT SMITH       PTSUNNY   78  68  71 SE10      29.96F
LITTLE ROCK    CLOUDY    81  67  62 SW15      30.04F

......OKLAHOMA.......

CITY           SKY/WX    TMP DP  RH WIND       PRES   REMARKS
TULSA          PTSUNNY   79  70  74 S7        29.91S
PONCA CITY     CLOUDY    74  69  85 E12       29.91F
MCALESTER      CLOUDY    73  68  84 VRB5      29.97R
OKLAHOMA CITY  MOSUNNY   82  70  66 S17G28    29.90R

......IOWA............

CITY           SKY/WX    TMP DP  RH WIND       PRES   REMARKS
DES MOINES     CLOUDY    70  62  76 SW7       29.93R
QUAD CITIES    MOSUNNY   80  60  50 S12G20    29.94F

......ILLINOIS........

CITY           SKY/WX    TMP DP  RH WIND       PRES   REMARKS
QUINCY         MOSUNNY   77  61  57 S13       30.00R
CHICAGO        PTSUNNY   78  55  44 S15       29.99S



USA.gov is the U.S. government's official web portal to all federal, state and local government web resources and services.